Time,TemperatureF,DewpointF,PressureIn,WindDirection,WindDirectionDegrees,WindSpeedMPH,WindSpeedGustMPH,Humidity,HourlyPrecipIn,Conditions,Clouds,dailyrainin,SoftwareType,DateUTC
2013-10-01 00:00:00,81.9,67.1,29.90,ENE,68,0.0,0.0,61,0.00,,---,0.00,VWS V13.01,2013-10-01 04:00:00,
2013-10-01 00:01:00,81.9,67.1,29.90,ENE,68,0.0,0.0,61,0.00,,---,0.00,VWS V13.01,2013-10-01 04:01:00,
2013-10-01 00:06:00,81.7,66.9,29.90,ESE,112,0.0,0.0,61,0.00,,---,0.00,VWS V13.01,2013-10-01 04:06:00,
2013-10-01 00:11:00,81.7,66.9,29.90,SSE,158,0.0,4.3,61,0.00,,---,0.00,VWS V13.01,2013-10-01 04:11:00,
2013-10-01 00:16:00,81.5,66.8,29.90,SE,135,0.0,4.3,61,0.00,,---,0.00,VWS V13.01,2013-10-01 04:16:00,
2013-10-01 00:21:00,81.5,67.2,29.90,ENE,68,0.0,4.3,62,0.00,,---,0.00,VWS V13.01,2013-10-01 04:21:00,
2013-10-01 00:26:00,81.5,67.2,29.89,ENE,68,0.0,4.3,62,0.00,,---,0.00,VWS V13.01,2013-10-01 04:26:00,
2013-10-01 00:31:00,81.3,67.1,29.89,SE,135,0.0,4.3,62,0.00,,---,0.00,VWS V13.01,2013-10-01 04:31:00,
2013-10-01 00:36:00,81.3,67.1,29.89,SE,135,2.0,4.3,62,0.00,,---,0.00,VWS V13.01,2013-10-01 04:36:00,
2013-10-01 00:41:00,81.3,67.1,29.89,East,90,0.0,4.3,62,0.00,,---,0.00,VWS V13.01,2013-10-01 04:41:00,
2013-10-01 00:46:00,81.3,67.5,29.89,ESE,112,0.0,4.3,63,0.00,,---,0.00,VWS V13.01,2013-10-01 04:46:00,
2013-10-01 00:51:00,81.1,67.4,29.89,ESE,112,0.0,4.3,63,0.00,,---,0.00,VWS V13.01,2013-10-01 04:51:00,
2013-10-01 00:56:00,81.3,67.1,29.89,ESE,112,0.0,4.3,62,0.00,,---,0.00,VWS V13.01,2013-10-01 04:56:00,
2013-10-01 01:01:00,81.3,67.1,29.89,ESE,112,0.0,4.3,62,0.00,,---,0.00,VWS V13.01,2013-10-01 05:01:00,
2013-10-01 01:06:00,81.3,67.1,29.89,East,90,0.0,0.0,62,0.00,,---,0.00,VWS V13.01,2013-10-01 05:06:00,
2013-10-01 01:11:00,81.3,67.1,29.89,SE,135,0.0,0.0,62,0.00,,---,0.00,VWS V13.01,2013-10-01 05:11:00,
2013-10-01 01:16:00,81.3,67.1,29.89,SSE,158,0.0,0.0,62,0.00,,---,0.00,VWS V13.01,2013-10-01 05:16:00,
2013-10-01 01:21:00,81.1,66.9,29.89,ENE,68,0.0,0.0,62,0.00,,---,0.00,VWS V13.01,2013-10-01 05:21:00,
2013-10-01 01:26:00,81.3,67.1,29.89,SE,135,0.0,1.1,62,0.00,,---,0.00,VWS V13.01,2013-10-01 05:26:00,
2013-10-01 01:31:00,81.0,66.7,29.89,SE,135,0.0,1.1,62,0.00,,---,0.00,VWS V13.01,2013-10-01 05:31:00,
2013-10-01 01:36:00,81.0,66.7,29.89,ESE,112,0.0,1.1,62,0.00,,---,0.00,VWS V13.01,2013-10-01 05:36:00,
2013-10-01 01:41:00,81.0,67.2,29.89,ESE,112,0.0,1.1,63,0.00,,---,0.00,VWS V13.01,2013-10-01 05:41:00,
2013-10-01 01:46:00,81.1,67.4,29.89,ESE,112,0.0,1.1,63,0.00,,---,0.00,VWS V13.01,2013-10-01 05:46:00,
2013-10-01 01:51:00,81.0,67.2,29.88,ENE,68,0.0,1.1,63,0.00,,---,0.00,VWS V13.01,2013-10-01 05:51:00,
2013-10-01 01:56:00,81.0,67.2,29.88,ESE,112,0.0,3.4,63,0.00,,---,0.00,VWS V13.01,2013-10-01 05:56:00,
2013-10-01 02:01:00,81.3,67.5,29.88,East,90,0.0,0.0,63,0.00,,---,0.00,VWS V13.01,2013-10-01 06:01:00,
2013-10-01 02:06:00,81.0,66.7,29.88,ENE,68,0.0,0.0,62,0.00,,---,0.00,VWS V13.01,2013-10-01 06:06:00,
2013-10-01 02:11:00,81.0,66.7,29.88,SSE,158,0.0,1.3,62,0.00,,---,0.00,VWS V13.01,2013-10-01 06:11:00,
2013-10-01 02:16:00,81.0,66.7,29.88,ESE,112,0.0,2.0,62,0.00,,---,0.00,VWS V13.01,2013-10-01 06:16:00,
2013-10-01 02:21:00,81.1,66.9,29.88,ESE,112,0.0,2.0,62,0.00,,---,0.00,VWS V13.01,2013-10-01 06:21:00,
2013-10-01 02:26:00,81.0,66.7,29.88,ESE,112,0.0,2.0,62,0.00,,---,0.00,VWS V13.01,2013-10-01 06:26:00,
2013-10-01 02:31:00,81.0,66.7,29.88,ESE,112,0.0,2.0,62,0.00,,---,0.00,VWS V13.01,2013-10-01 06:31:00,
2013-10-01 02:36:00,81.1,66.9,29.88,ESE,112,0.0,2.0,62,0.00,,---,0.00,VWS V13.01,2013-10-01 06:36:00,
2013-10-01 02:41:00,81.1,66.4,29.88,ESE,112,0.0,2.0,61,0.00,,---,0.00,VWS V13.01,2013-10-01 06:41:00,
2013-10-01 02:46:00,81.1,66.4,29.87,ESE,112,0.0,2.0,61,0.00,,---,0.00,VWS V13.01,2013-10-01 06:46:00,
2013-10-01 02:51:00,81.0,66.3,29.88,ESE,112,0.0,2.0,61,0.00,,---,0.00,VWS V13.01,2013-10-01 06:51:00,
2013-10-01 02:56:00,81.0,66.3,29.87,ESE,112,0.0,2.9,61,0.00,,---,0.00,VWS V13.01,2013-10-01 06:56:00,
2013-10-01 03:01:00,81.0,65.8,29.87,ENE,68,0.0,0.0,60,0.00,,---,0.00,VWS V13.01,2013-10-01 07:01:00,
2013-10-01 03:06:00,81.0,65.8,29.88,ENE,68,0.0,0.0,60,0.00,,---,0.00,VWS V13.01,2013-10-01 07:06:00,
2013-10-01 03:11:00,80.8,65.6,29.87,ENE,68,0.0,0.0,60,0.00,,---,0.00,VWS V13.01,2013-10-01 07:11:00,
2013-10-01 03:16:00,80.6,65.4,29.87,ENE,68,0.0,0.0,60,0.00,,---,0.00,VWS V13.01,2013-10-01 07:16:00,
2013-10-01 03:21:00,80.6,65.4,29.87,ENE,68,0.0,0.0,60,0.00,,---,0.00,VWS V13.01,2013-10-01 07:21:00,
2013-10-01 03:26:00,80.2,65.6,29.87,ENE,68,0.0,0.0,61,0.00,,---,0.00,VWS V13.01,2013-10-01 07:26:00,
2013-10-01 03:31:00,80.2,65.6,29.87,ENE,68,0.0,0.0,61,0.00,,---,0.00,VWS V13.01,2013-10-01 07:31:00,
2013-10-01 03:36:00,80.1,65.4,29.87,ENE,68,0.0,0.0,61,0.00,,---,0.00,VWS V13.01,2013-10-01 07:36:00,
2013-10-01 03:41:00,80.1,65.4,29.87,ENE,68,0.0,0.0,61,0.00,,---,0.00,VWS V13.01,2013-10-01 07:41:00,
2013-10-01 03:46:00,79.9,65.2,29.87,ENE,68,0.0,0.0,61,0.00,,---,0.00,VWS V13.01,2013-10-01 07:46:00,
2013-10-01 03:51:00,79.7,65.5,29.87,ENE,68,0.0,0.0,62,0.00,,---,0.00,VWS V13.01,2013-10-01 07:51:00,
2013-10-01 03:56:00,79.7,65.5,29.87,ENE,68,0.0,0.0,62,0.00,,---,0.00,VWS V13.01,2013-10-01 07:56:00,
2013-10-01 04:01:00,79.5,65.8,29.87,ENE,68,0.0,0.0,63,0.00,,---,0.00,VWS V13.01,2013-10-01 08:01:00,
2013-10-01 04:06:00,79.5,65.8,29.87,ENE,68,0.0,0.0,63,0.00,,---,0.00,VWS V13.01,2013-10-01 08:06:00,
2013-10-01 04:11:00,79.3,66.1,29.87,ENE,68,0.0,0.0,64,0.00,,---,0.00,VWS V13.01,2013-10-01 08:11:00,
2013-10-01 04:16:00,79.2,65.9,29.87,ENE,68,0.0,0.0,64,0.00,,---,0.00,VWS V13.01,2013-10-01 08:16:00,
2013-10-01 04:21:00,79.0,65.8,29.87,ENE,68,0.0,0.0,64,0.00,,---,0.00,VWS V13.01,2013-10-01 08:21:00,
2013-10-01 04:26:00,79.0,65.8,29.87,ENE,68,0.0,0.0,64,0.00,,---,0.00,VWS V13.01,2013-10-01 08:26:00,
2013-10-01 04:31:00,79.0,65.8,29.87,ENE,68,0.0,0.0,64,0.00,,---,0.00,VWS V13.01,2013-10-01 08:31:00,
2013-10-01 04:36:00,78.6,65.4,29.87,ENE,68,0.0,0.0,64,0.00,,---,0.00,VWS V13.01,2013-10-01 08:36:00,
2013-10-01 04:41:00,78.4,65.7,29.87,ENE,68,0.0,0.0,65,0.00,,---,0.00,VWS V13.01,2013-10-01 08:41:00,
2013-10-01 04:46:00,78.3,65.5,29.87,ENE,68,0.0,0.0,65,0.00,,---,0.00,VWS V13.01,2013-10-01 08:46:00,
2013-10-01 04:51:00,78.3,65.5,29.86,ENE,68,0.0,0.0,65,0.00,,---,0.00,VWS V13.01,2013-10-01 08:51:00,
2013-10-01 04:56:00,77.9,65.2,29.87,ENE,68,0.0,0.0,65,0.00,,---,0.00,VWS V13.01,2013-10-01 08:56:00,
2013-10-01 05:01:00,78.1,65.4,29.86,ENE,68,0.0,0.0,65,0.00,,---,0.00,VWS V13.01,2013-10-01 09:01:00,
2013-10-01 05:06:00,77.7,65.5,29.86,ENE,68,0.0,0.0,66,0.00,,---,0.00,VWS V13.01,2013-10-01 09:06:00,
2013-10-01 05:11:00,77.5,65.7,29.87,ENE,68,0.0,0.0,67,0.00,,---,0.00,VWS V13.01,2013-10-01 09:11:00,
2013-10-01 05:16:00,77.4,66.0,29.87,ENE,68,0.0,0.0,68,0.00,,---,0.00,VWS V13.01,2013-10-01 09:16:00,
2013-10-01 05:22:00,77.4,66.0,29.87,ENE,68,0.0,0.0,68,0.00,,---,0.00,VWS V13.01,2013-10-01 09:22:00,
2013-10-01 05:27:00,77.4,66.4,29.87,ENE,68,0.0,0.0,69,0.00,,---,0.00,VWS V13.01,2013-10-01 09:27:00,
2013-10-01 05:32:00,77.2,66.2,29.87,ENE,68,0.0,0.0,69,0.00,,---,0.00,VWS V13.01,2013-10-01 09:32:00,
2013-10-01 05:37:00,77.2,66.7,29.87,ENE,68,0.0,0.0,70,0.00,,---,0.00,VWS V13.01,2013-10-01 09:37:00,
2013-10-01 05:42:00,77.2,66.7,29.87,ENE,68,0.0,0.0,70,0.00,,---,0.00,VWS V13.01,2013-10-01 09:42:00,
2013-10-01 05:47:00,76.8,66.3,29.88,ENE,68,0.0,0.0,70,0.00,,---,0.00,VWS V13.01,2013-10-01 09:47:00,
2013-10-01 05:52:00,77.0,66.9,29.88,ENE,68,0.0,0.0,71,0.00,,---,0.00,VWS V13.01,2013-10-01 09:52:00,
2013-10-01 05:57:00,76.8,66.7,29.87,ENE,68,0.0,0.0,71,0.00,,---,0.00,VWS V13.01,2013-10-01 09:57:00,
2013-10-01 06:02:00,76.8,66.7,29.88,ENE,68,0.0,0.0,71,0.00,,---,0.00,VWS V13.01,2013-10-01 10:02:00,
2013-10-01 06:07:00,76.8,67.1,29.88,ENE,68,0.0,0.0,72,0.00,,---,0.00,VWS V13.01,2013-10-01 10:07:00,
2013-10-01 06:12:00,76.6,66.9,29.88,ENE,68,0.0,0.0,72,0.00,,---,0.00,VWS V13.01,2013-10-01 10:12:00,
2013-10-01 06:17:00,76.6,66.9,29.88,ENE,68,0.0,0.0,72,0.00,,---,0.00,VWS V13.01,2013-10-01 10:17:00,
2013-10-01 06:22:00,76.6,66.9,29.88,ENE,68,0.0,0.0,72,0.00,,---,0.00,VWS V13.01,2013-10-01 10:22:00,
2013-10-01 06:27:00,76.5,66.8,29.88,ENE,68,0.0,0.0,72,0.00,,---,0.00,VWS V13.01,2013-10-01 10:27:00,
2013-10-01 06:32:00,76.5,66.8,29.88,ENE,68,0.0,0.0,72,0.00,,---,0.00,VWS V13.01,2013-10-01 10:32:00,
2013-10-01 06:37:00,76.5,66.8,29.88,ENE,68,0.0,0.0,72,0.00,,---,0.00,VWS V13.01,2013-10-01 10:37:00,
2013-10-01 06:42:00,76.3,66.6,29.88,ENE,68,0.0,0.0,72,0.00,,---,0.00,VWS V13.01,2013-10-01 10:42:00,
2013-10-01 06:47:00,76.3,67.0,29.88,ENE,68,0.0,0.0,73,0.00,,---,0.00,VWS V13.01,2013-10-01 10:47:00,
2013-10-01 06:52:00,76.1,66.8,29.88,ENE,68,0.0,0.0,73,0.00,,---,0.00,VWS V13.01,2013-10-01 10:52:00,
2013-10-01 06:57:00,76.1,67.2,29.88,ENE,68,0.0,0.0,74,0.00,,---,0.00,VWS V13.01,2013-10-01 10:57:00,
2013-10-01 07:02:00,76.1,67.2,29.89,ENE,68,0.0,0.0,74,0.00,,---,0.00,VWS V13.01,2013-10-01 11:02:00,
2013-10-01 07:07:00,75.9,67.0,29.88,ENE,68,0.0,0.0,74,0.00,,---,0.00,VWS V13.01,2013-10-01 11:07:00,
2013-10-01 07:12:00,75.9,67.0,29.88,ENE,68,0.0,0.0,74,0.00,,---,0.00,VWS V13.01,2013-10-01 11:12:00,
2013-10-01 07:17:00,75.9,67.4,29.89,ENE,68,0.0,0.0,75,0.00,,---,0.00,VWS V13.01,2013-10-01 11:17:00,
2013-10-01 07:22:00,75.9,67.0,29.89,ENE,68,0.0,0.0,74,0.00,,---,0.00,VWS V13.01,2013-10-01 11:22:00,
2013-10-01 07:27:00,76.1,67.2,29.89,ENE,68,0.0,0.0,74,0.00,,---,0.00,VWS V13.01,2013-10-01 11:27:00,
2013-10-01 07:32:00,76.1,67.6,29.89,ENE,68,0.0,0.0,75,0.00,,---,0.00,VWS V13.01,2013-10-01 11:32:00,
2013-10-01 07:37:00,76.1,67.6,29.89,ENE,68,0.0,0.0,75,0.00,,---,0.00,VWS V13.01,2013-10-01 11:37:00,
2013-10-01 07:42:00,76.5,67.9,29.89,ENE,68,0.0,0.0,75,0.00,,---,0.00,VWS V13.01,2013-10-01 11:42:00,
2013-10-01 07:47:00,76.5,68.3,29.89,ENE,68,0.0,0.0,76,0.00,,---,0.00,VWS V13.01,2013-10-01 11:47:00,
2013-10-01 07:53:00,76.6,68.5,29.89,ENE,68,0.0,0.0,76,0.00,,---,0.00,VWS V13.01,2013-10-01 11:53:00,
2013-10-01 07:58:00,77.2,69.0,29.89,ENE,68,0.0,0.0,76,0.00,,---,0.00,VWS V13.01,2013-10-01 11:58:00,
2013-10-01 08:03:00,77.2,69.0,29.90,ENE,68,0.0,0.0,76,0.00,,---,0.00,VWS V13.01,2013-10-01 12:03:00,
2013-10-01 08:08:00,77.7,69.6,29.90,ENE,68,0.0,0.0,76,0.00,,---,0.00,VWS V13.01,2013-10-01 12:08:00,
2013-10-01 08:13:00,78.4,70.2,29.90,ENE,68,0.0,0.0,76,0.00,,---,0.00,VWS V13.01,2013-10-01 12:13:00,
2013-10-01 08:18:00,79.2,70.6,29.90,ENE,68,0.0,0.0,75,0.00,,---,0.00,VWS V13.01,2013-10-01 12:18:00,
2013-10-01 08:23:00,79.9,70.9,29.90,ENE,68,0.0,0.0,74,0.00,,---,0.00,VWS V13.01,2013-10-01 12:23:00,
2013-10-01 08:28:00,80.6,71.2,29.91,ENE,68,0.0,0.0,73,0.00,,---,0.00,VWS V13.01,2013-10-01 12:28:00,
2013-10-01 08:33:00,81.3,71.4,29.91,ENE,68,0.0,1.6,72,0.00,,---,0.00,VWS V13.01,2013-10-01 12:33:00,
2013-10-01 08:39:00,81.9,71.1,29.91,ENE,68,0.0,1.6,70,0.00,,---,0.00,VWS V13.01,2013-10-01 12:39:00,
2013-10-01 08:44:00,82.4,71.2,29.91,ENE,68,1.3,2.9,69,0.00,,---,0.00,VWS V13.01,2013-10-01 12:44:00,
2013-10-01 08:49:00,82.9,70.9,29.91,ENE,68,0.0,3.6,67,0.00,,---,0.00,VWS V13.01,2013-10-01 12:49:00,
2013-10-01 08:54:00,83.3,70.3,29.91,ENE,68,3.1,3.8,65,0.00,,---,0.00,VWS V13.01,2013-10-01 12:54:00,
2013-10-01 08:59:00,83.7,70.7,29.92,ENE,68,0.0,3.8,65,0.00,,---,0.00,VWS V13.01,2013-10-01 12:59:00,
2013-10-01 09:04:00,83.8,70.4,29.92,SE,135,0.9,3.8,64,0.00,,---,0.00,VWS V13.01,2013-10-01 13:04:00,
2013-10-01 09:09:00,83.8,69.9,29.92,East,90,0.0,5.8,63,0.00,,---,0.00,VWS V13.01,2013-10-01 13:09:00,
2013-10-01 09:14:00,84.4,70.4,29.92,ESE,112,0.0,5.8,63,0.00,,---,0.00,VWS V13.01,2013-10-01 13:14:00,
2013-10-01 09:19:00,84.6,70.1,29.92,SE,135,0.0,5.8,62,0.00,,---,0.00,VWS V13.01,2013-10-01 13:19:00,
2013-10-01 09:24:00,85.1,70.6,29.92,ESE,112,0.0,5.8,62,0.00,,---,0.00,VWS V13.01,2013-10-01 13:24:00,
2013-10-01 09:29:00,85.5,70.0,29.93,ESE,112,0.0,6.5,60,0.00,,---,0.00,VWS V13.01,2013-10-01 13:29:00,
2013-10-01 09:34:00,85.8,69.8,29.93,ENE,68,0.0,6.5,59,0.00,,---,0.00,VWS V13.01,2013-10-01 13:34:00,
2013-10-01 09:39:00,86.2,69.7,29.93,ESE,112,0.0,6.5,58,0.00,,---,0.00,VWS V13.01,2013-10-01 13:39:00,
2013-10-01 09:44:00,86.2,69.2,29.93,ENE,68,1.6,6.5,57,0.00,,---,0.00,VWS V13.01,2013-10-01 13:44:00,
2013-10-01 09:49:00,86.2,68.7,29.92,ESE,112,2.5,6.5,56,0.00,,---,0.00,VWS V13.01,2013-10-01 13:49:00,
2013-10-01 09:54:00,86.4,68.8,29.93,ENE,68,0.0,6.5,56,0.00,,---,0.00,VWS V13.01,2013-10-01 13:54:00,
2013-10-01 09:59:00,86.5,68.5,29.93,ENE,68,0.0,6.5,55,0.00,,---,0.00,VWS V13.01,2013-10-01 13:59:00,
2013-10-01 10:04:00,86.7,68.1,29.93,ENE,68,3.1,8.5,54,0.00,,---,0.00,VWS V13.01,2013-10-01 14:04:00,
2013-10-01 10:09:00,86.7,67.6,29.93,ESE,112,3.4,8.5,53,0.00,,---,0.00,VWS V13.01,2013-10-01 14:09:00,
2013-10-01 10:14:00,86.9,67.2,29.93,ESE,112,0.0,8.5,52,0.00,,---,0.00,VWS V13.01,2013-10-01 14:14:00,
2013-10-01 10:19:00,87.3,67.5,29.93,ENE,68,0.0,8.5,52,0.00,,---,0.00,VWS V13.01,2013-10-01 14:19:00,
2013-10-01 10:24:00,87.3,66.4,29.93,ENE,68,1.8,9.2,50,0.00,,---,0.00,VWS V13.01,2013-10-01 14:24:00,
2013-10-01 10:29:00,87.4,66.5,29.93,ENE,68,0.0,9.2,50,0.00,,---,0.00,VWS V13.01,2013-10-01 14:29:00,
2013-10-01 10:34:00,87.6,66.7,29.93,SSE,158,5.6,9.2,50,0.00,,---,0.00,VWS V13.01,2013-10-01 14:34:00,
2013-10-01 10:39:00,87.8,66.3,29.93,East,90,5.6,9.2,49,0.00,,---,0.00,VWS V13.01,2013-10-01 14:39:00,
2013-10-01 10:44:00,87.6,65.5,29.93,ESE,112,2.7,9.2,48,0.00,,---,0.00,VWS V13.01,2013-10-01 14:44:00,
2013-10-01 10:50:00,88.0,65.2,29.93,East,90,1.8,9.2,47,0.00,,---,0.00,VWS V13.01,2013-10-01 14:50:00,
2013-10-01 10:55:00,88.2,66.0,29.93,East,90,3.8,9.2,48,0.00,,---,0.00,VWS V13.01,2013-10-01 14:55:00,
2013-10-01 11:00:00,88.0,65.8,29.93,East,90,2.2,4.3,48,0.00,,---,0.00,VWS V13.01,2013-10-01 15:00:00,
2013-10-01 11:06:00,87.4,64.8,29.93,East,90,5.4,5.4,47,0.00,,---,0.00,VWS V13.01,2013-10-01 15:06:00,
2013-10-01 11:11:00,87.6,65.5,29.93,East,90,2.5,6.0,48,0.00,,---,0.00,VWS V13.01,2013-10-01 15:11:00,
2013-10-01 11:16:00,87.6,65.5,29.93,ENE,68,2.5,6.0,48,0.00,,---,0.00,VWS V13.01,2013-10-01 15:16:00,
2013-10-01 11:21:00,87.8,66.3,29.93,ENE,68,4.5,6.9,49,0.00,,---,0.00,VWS V13.01,2013-10-01 15:21:00,
2013-10-01 11:26:00,88.0,65.8,29.93,NE,45,6.5,11.0,48,0.00,,---,0.00,VWS V13.01,2013-10-01 15:26:00,
2013-10-01 11:31:00,88.2,66.6,29.93,ENE,68,0.0,11.0,49,0.00,,---,0.00,VWS V13.01,2013-10-01 15:31:00,
2013-10-01 11:36:00,88.2,66.0,29.93,ESE,112,1.8,11.0,48,0.00,,---,0.00,VWS V13.01,2013-10-01 15:36:00,
2013-10-01 11:41:00,88.2,65.4,29.93,ENE,68,3.8,11.0,47,0.00,,---,0.00,VWS V13.01,2013-10-01 15:41:00,
2013-10-01 11:46:00,88.3,65.6,29.93,ENE,68,3.1,11.0,47,0.00,,---,0.00,VWS V13.01,2013-10-01 15:46:00,
2013-10-01 11:51:00,88.7,65.9,29.93,ESE,112,1.6,11.0,47,0.00,,---,0.00,VWS V13.01,2013-10-01 15:51:00,
2013-10-01 11:56:00,88.5,66.3,29.93,East,90,4.3,11.0,48,0.00,,---,0.00,VWS V13.01,2013-10-01 15:56:00,
2013-10-01 12:01:00,88.7,65.9,29.93,ESE,112,0.0,4.3,47,0.00,,---,0.00,VWS V13.01,2013-10-01 16:01:00,
2013-10-01 12:06:00,88.5,65.1,29.93,ENE,68,2.7,6.0,46,0.00,,---,0.00,VWS V13.01,2013-10-01 16:06:00,
2013-10-01 12:11:00,88.5,65.7,29.93,ESE,112,0.0,6.3,47,0.00,,---,0.00,VWS V13.01,2013-10-01 16:11:00,
2013-10-01 12:17:00,88.7,65.9,29.92,ENE,68,0.0,6.3,47,0.00,,---,0.00,VWS V13.01,2013-10-01 16:17:00,
2013-10-01 12:22:00,89.2,66.4,29.92,ENE,68,3.6,8.5,47,0.00,,---,0.00,VWS V13.01,2013-10-01 16:22:00,
2013-10-01 12:27:00,89.4,65.9,29.92,ESE,112,7.2,8.5,46,0.00,,---,0.00,VWS V13.01,2013-10-01 16:27:00,
2013-10-01 12:31:00,89.4,65.3,29.93,ESE,112,2.9,8.5,45,0.00,,---,0.00,VWS V13.01,2013-10-01 16:31:00,
2013-10-01 12:36:00,89.4,65.9,29.92,ENE,68,3.1,9.2,46,0.00,,---,0.00,VWS V13.01,2013-10-01 16:36:00,
2013-10-01 12:41:00,89.4,65.9,29.93,ENE,68,5.6,9.2,46,0.00,,---,0.00,VWS V13.01,2013-10-01 16:41:00,
2013-10-01 12:46:00,89.4,65.9,29.93,ESE,112,0.0,9.2,46,0.00,,---,0.00,VWS V13.01,2013-10-01 16:46:00,
2013-10-01 12:51:00,89.2,65.8,29.92,ESE,112,2.7,9.2,46,0.00,,---,0.00,VWS V13.01,2013-10-01 16:51:00,
2013-10-01 12:56:00,90.0,66.4,29.92,ENE,68,0.0,9.2,46,0.00,,---,0.00,VWS V13.01,2013-10-01 16:56:00,
2013-10-01 13:01:00,89.4,65.3,29.92,ESE,112,3.6,3.6,45,0.00,,---,0.00,VWS V13.01,2013-10-01 17:01:00,
2013-10-01 13:07:00,89.4,66.6,29.92,ESE,112,3.4,6.3,47,0.00,,---,0.00,VWS V13.01,2013-10-01 17:07:00,
2013-10-01 13:11:00,90.0,67.0,29.92,ESE,112,1.1,6.3,47,0.00,,---,0.00,VWS V13.01,2013-10-01 17:11:00,
2013-10-01 13:16:00,89.2,65.8,29.92,SE,135,4.3,6.7,46,0.00,,---,0.00,VWS V13.01,2013-10-01 17:16:00,
2013-10-01 13:22:00,89.4,65.9,29.92,ENE,68,8.5,9.6,46,0.00,,---,0.00,VWS V13.01,2013-10-01 17:22:00,
2013-10-01 13:27:00,89.4,65.9,29.92,ENE,68,6.0,9.6,46,0.00,,---,0.00,VWS V13.01,2013-10-01 17:27:00,
2013-10-01 13:32:00,90.1,66.6,29.92,SE,135,5.8,9.6,46,0.00,,---,0.00,VWS V13.01,2013-10-01 17:32:00,
2013-10-01 13:37:00,90.3,66.8,29.92,ESE,112,2.9,9.6,46,0.00,,---,0.00,VWS V13.01,2013-10-01 17:37:00,
2013-10-01 13:42:00,90.3,66.1,29.91,ENE,68,3.4,12.1,45,0.00,,---,0.00,VWS V13.01,2013-10-01 17:42:00,
2013-10-01 13:47:00,90.3,65.5,29.91,ENE,68,7.6,12.1,44,0.00,,---,0.00,VWS V13.01,2013-10-01 17:47:00,
2013-10-01 13:52:00,90.3,66.8,29.91,East,90,2.5,12.1,46,0.00,,---,0.00,VWS V13.01,2013-10-01 17:52:00,
2013-10-01 13:57:00,90.3,65.5,29.91,East,90,2.7,12.1,44,0.00,,---,0.00,VWS V13.01,2013-10-01 17:57:00,
2013-10-01 14:02:00,90.3,66.1,29.91,SE,135,0.0,7.4,45,0.00,,---,0.00,VWS V13.01,2013-10-01 18:02:00,
2013-10-01 14:07:00,90.1,65.3,29.91,East,90,2.9,7.4,44,0.00,,---,0.00,VWS V13.01,2013-10-01 18:07:00,
2013-10-01 14:12:00,90.0,65.1,29.90,ENE,68,0.0,7.4,44,0.00,,---,0.00,VWS V13.01,2013-10-01 18:12:00,
2013-10-01 14:17:00,90.3,66.1,29.90,ENE,68,3.6,8.7,45,0.00,,---,0.00,VWS V13.01,2013-10-01 18:17:00,
2013-10-01 14:22:00,90.5,65.6,29.90,ESE,112,4.3,8.7,44,0.00,,---,0.00,VWS V13.01,2013-10-01 18:22:00,
2013-10-01 14:27:00,90.0,63.8,29.89,ENE,68,4.7,9.0,42,0.00,,---,0.00,VWS V13.01,2013-10-01 18:27:00,
2013-10-01 14:33:00,89.4,64.7,29.89,ENE,68,6.3,9.0,44,0.00,,---,0.00,VWS V13.01,2013-10-01 18:33:00,
2013-10-01 14:38:00,89.6,64.2,29.90,ESE,112,7.8,9.0,43,0.00,,---,0.00,VWS V13.01,2013-10-01 18:38:00,
2013-10-01 14:43:00,89.4,64.0,29.90,ENE,68,4.3,14.1,43,0.00,,---,0.00,VWS V13.01,2013-10-01 18:43:00,
2013-10-01 14:48:00,89.1,63.7,29.89,ENE,68,0.0,14.1,43,0.00,,---,0.00,VWS V13.01,2013-10-01 18:48:00,
2013-10-01 14:53:00,89.1,64.3,29.89,ESE,112,3.4,14.1,44,0.00,,---,0.00,VWS V13.01,2013-10-01 18:53:00,
2013-10-01 14:58:00,89.1,65.0,29.89,ESE,112,3.4,14.1,45,0.00,,---,0.00,VWS V13.01,2013-10-01 18:58:00,
2013-10-01 15:03:00,89.1,65.6,29.89,East,90,0.0,10.7,46,0.00,,---,0.00,VWS V13.01,2013-10-01 19:03:00,
2013-10-01 15:08:00,88.7,64.0,29.89,ENE,68,1.8,10.7,44,0.00,,---,0.00,VWS V13.01,2013-10-01 19:08:00,
2013-10-01 15:13:00,88.2,62.9,29.89,ENE,68,3.8,13.2,43,0.00,,---,0.00,VWS V13.01,2013-10-01 19:13:00,
2013-10-01 15:18:00,87.8,63.8,29.88,ESE,112,6.7,13.2,45,0.00,,---,0.00,VWS V13.01,2013-10-01 19:18:00,
2013-10-01 15:23:00,88.0,64.6,29.88,SSE,158,4.7,13.2,46,0.00,,---,0.00,VWS V13.01,2013-10-01 19:23:00,
2013-10-01 15:28:00,88.0,64.0,29.88,ENE,68,5.8,13.2,45,0.00,,---,0.00,VWS V13.01,2013-10-01 19:28:00,
2013-10-01 15:33:00,88.2,64.2,29.88,ENE,68,4.3,13.2,45,0.00,,---,0.00,VWS V13.01,2013-10-01 19:33:00,
2013-10-01 15:38:00,88.5,65.1,29.88,SE,135,5.6,13.2,46,0.00,,---,0.00,VWS V13.01,2013-10-01 19:38:00,
2013-10-01 15:43:00,88.0,64.0,29.88,East,90,3.8,13.2,45,0.00,,---,0.00,VWS V13.01,2013-10-01 19:43:00,
2013-10-01 15:48:00,88.0,64.0,29.88,ENE,68,5.6,13.2,45,0.00,,---,0.00,VWS V13.01,2013-10-01 19:48:00,
2013-10-01 15:53:00,88.0,64.0,29.88,ENE,68,1.3,13.2,45,0.00,,---,0.00,VWS V13.01,2013-10-01 19:53:00,
2013-10-01 15:58:00,88.2,64.2,29.88,ENE,68,2.9,13.2,45,0.00,,---,0.00,VWS V13.01,2013-10-01 19:58:00,
2013-10-01 16:03:00,88.2,64.2,29.88,ENE,68,2.5,11.9,45,0.00,,---,0.00,VWS V13.01,2013-10-01 20:03:00,
2013-10-01 16:08:00,88.5,65.1,29.88,ENE,68,2.9,11.9,46,0.00,,---,0.00,VWS V13.01,2013-10-01 20:08:00,
2013-10-01 16:13:00,88.7,65.3,29.88,SE,135,1.8,11.9,46,0.00,,---,0.00,VWS V13.01,2013-10-01 20:13:00,
2013-10-01 16:19:00,88.7,65.3,29.88,ENE,68,10.3,11.9,46,0.00,,---,0.00,VWS V13.01,2013-10-01 20:19:00,
2013-10-01 16:24:00,88.2,64.8,29.88,East,90,7.8,11.9,46,0.00,,---,0.00,VWS V13.01,2013-10-01 20:24:00,
2013-10-01 16:29:00,88.2,65.4,29.88,East,90,3.1,11.9,47,0.00,,---,0.00,VWS V13.01,2013-10-01 20:29:00,
2013-10-01 16:34:00,88.2,64.2,29.88,ESE,112,3.8,11.9,45,0.00,,---,0.00,VWS V13.01,2013-10-01 20:34:00,
2013-10-01 16:39:00,88.2,64.8,29.87,ENE,68,0.0,11.9,46,0.00,,---,0.00,VWS V13.01,2013-10-01 20:39:00,
2013-10-01 16:44:00,88.3,64.3,29.88,East,90,1.8,11.9,45,0.00,,---,0.00,VWS V13.01,2013-10-01 20:44:00,
2013-10-01 16:49:00,88.0,64.0,29.87,ENE,68,5.4,11.9,45,0.00,,---,0.00,VWS V13.01,2013-10-01 20:49:00,
2013-10-01 16:54:00,87.4,64.1,29.87,ENE,68,0.0,11.9,46,0.00,,---,0.00,VWS V13.01,2013-10-01 20:54:00,
2013-10-01 17:00:00,87.4,64.8,29.87,ENE,68,5.4,11.9,47,0.00,,---,0.00,VWS V13.01,2013-10-01 21:00:00,
2013-10-01 17:05:00,87.3,64.6,29.87,ENE,68,9.8,10.1,47,0.00,,---,0.00,VWS V13.01,2013-10-01 21:05:00,
2013-10-01 17:10:00,86.7,64.7,29.88,ENE,68,3.1,10.1,48,0.00,,---,0.00,VWS V13.01,2013-10-01 21:10:00,
2013-10-01 17:15:00,86.9,64.9,29.88,ENE,68,5.4,10.1,48,0.00,,---,0.00,VWS V13.01,2013-10-01 21:15:00,
2013-10-01 17:20:00,86.4,63.8,29.88,ENE,68,2.7,10.1,47,0.00,,---,0.00,VWS V13.01,2013-10-01 21:20:00,
2013-10-01 17:25:00,86.2,64.2,29.88,ENE,68,5.6,10.1,48,0.00,,---,0.00,VWS V13.01,2013-10-01 21:25:00,
2013-10-01 17:30:00,86.2,64.2,29.88,ENE,68,5.8,10.1,48,0.00,,---,0.00,VWS V13.01,2013-10-01 21:30:00,
2013-10-01 17:35:00,86.2,64.2,29.88,SE,135,1.3,10.1,48,0.00,,---,0.00,VWS V13.01,2013-10-01 21:35:00,
2013-10-01 17:40:00,86.2,64.2,29.88,ENE,68,0.0,10.1,48,0.00,,---,0.00,VWS V13.01,2013-10-01 21:40:00,
2013-10-01 17:45:00,86.2,63.6,29.88,East,90,4.0,10.1,47,0.00,,---,0.00,VWS V13.01,2013-10-01 21:45:00,
2013-10-01 17:50:00,86.2,64.2,29.88,East,90,3.6,10.1,48,0.00,,---,0.00,VWS V13.01,2013-10-01 21:50:00,
2013-10-01 17:55:00,85.8,64.5,29.88,ESE,112,2.7,10.1,49,0.00,,---,0.00,VWS V13.01,2013-10-01 21:55:00,
2013-10-01 18:01:00,85.8,65.1,29.89,SE,135,0.0,3.8,50,0.00,,---,0.00,VWS V13.01,2013-10-01 22:01:00,
2013-10-01 18:06:00,85.6,64.9,29.88,ENE,68,0.0,7.2,50,0.00,,---,0.00,VWS V13.01,2013-10-01 22:06:00,
2013-10-01 18:11:00,85.5,64.7,29.89,ENE,68,1.8,9.4,50,0.00,,---,0.00,VWS V13.01,2013-10-01 22:11:00,
2013-10-01 18:16:00,85.1,65.0,29.89,ENE,68,3.4,9.4,51,0.00,,---,0.00,VWS V13.01,2013-10-01 22:16:00,
2013-10-01 18:21:00,84.9,65.3,29.89,ENE,68,2.9,9.4,52,0.00,,---,0.00,VWS V13.01,2013-10-01 22:21:00,
2013-10-01 18:26:00,84.6,65.6,29.89,East,90,2.2,11.6,53,0.00,,---,0.00,VWS V13.01,2013-10-01 22:26:00,
2013-10-01 18:31:00,84.4,65.4,29.89,SE,135,5.1,11.6,53,0.00,,---,0.00,VWS V13.01,2013-10-01 22:31:00,
2013-10-01 18:36:00,84.2,65.8,29.90,ENE,68,0.0,11.6,54,0.00,,---,0.00,VWS V13.01,2013-10-01 22:36:00,
2013-10-01 18:41:00,83.8,65.4,29.90,ENE,68,0.0,11.6,54,0.00,,---,0.00,VWS V13.01,2013-10-01 22:41:00,
2013-10-01 18:47:00,83.7,65.3,29.91,NE,45,10.1,11.6,54,0.00,,---,0.00,VWS V13.01,2013-10-01 22:47:00,
2013-10-01 18:52:00,83.7,65.3,29.91,ENE,68,5.4,11.6,54,0.00,,---,0.00,VWS V13.01,2013-10-01 22:52:00,
2013-10-01 18:57:00,83.7,65.8,29.91,East,90,4.7,11.6,55,0.00,,---,0.00,VWS V13.01,2013-10-01 22:57:00,
2013-10-01 19:02:00,83.3,65.5,29.91,ENE,68,1.1,8.7,55,0.00,,---,0.00,VWS V13.01,2013-10-01 23:02:00,
2013-10-01 19:07:00,83.3,65.5,29.91,ENE,68,2.0,8.7,55,0.00,,---,0.00,VWS V13.01,2013-10-01 23:07:00,
2013-10-01 19:12:00,83.1,65.8,29.91,East,90,5.6,8.7,56,0.00,,---,0.00,VWS V13.01,2013-10-01 23:12:00,
2013-10-01 19:17:00,83.1,66.3,29.91,ENE,68,2.9,8.7,57,0.00,,---,0.00,VWS V13.01,2013-10-01 23:17:00,
2013-10-01 19:20:00,83.1,66.3,29.91,ENE,68,7.2,8.7,57,0.00,,---,0.00,VWS V13.01,2013-10-01 23:20:00,
2013-10-01 19:25:00,82.8,66.0,29.91,SE,135,0.0,8.7,57,0.00,,---,0.00,VWS V13.01,2013-10-01 23:25:00,
2013-10-01 19:30:00,82.8,66.0,29.91,East,90,0.0,8.7,57,0.00,,---,0.00,VWS V13.01,2013-10-01 23:30:00,
2013-10-01 19:35:00,82.9,66.2,29.92,SE,135,0.9,8.7,57,0.00,,---,0.00,VWS V13.01,2013-10-01 23:35:00,
2013-10-01 19:40:00,82.8,66.0,29.91,East,90,4.0,9.8,57,0.00,,---,0.00,VWS V13.01,2013-10-01 23:40:00,
2013-10-01 19:45:00,82.8,66.0,29.91,ENE,68,0.0,9.8,57,0.00,,---,0.00,VWS V13.01,2013-10-01 23:45:00,
2013-10-01 19:50:00,82.8,66.5,29.91,ENE,68,2.7,9.8,58,0.00,,---,0.00,VWS V13.01,2013-10-01 23:50:00,
2013-10-01 19:55:00,82.8,66.0,29.91,ENE,68,0.0,9.8,57,0.00,,---,0.00,VWS V13.01,2013-10-01 23:55:00,
2013-10-01 20:00:00,82.6,66.3,29.91,ENE,68,2.2,2.5,58,0.00,,---,0.00,VWS V13.01,2013-10-02 00:00:00,
2013-10-01 20:05:00,82.6,66.3,29.91,East,90,2.5,5.8,58,0.00,,---,0.00,VWS V13.01,2013-10-02 00:05:00,
2013-10-01 20:10:00,82.6,66.3,29.91,East,90,0.0,9.6,58,0.00,,---,0.00,VWS V13.01,2013-10-02 00:10:00,
2013-10-01 20:15:00,82.4,66.2,29.91,ENE,68,4.5,9.6,58,0.00,,---,0.00,VWS V13.01,2013-10-02 00:15:00,
2013-10-01 20:17:00,82.4,66.2,29.90,East,90,1.6,9.6,58,0.00,,---,0.00,VWS V13.01,2013-10-02 00:17:00,
2013-10-01 20:22:00,82.2,66.0,29.91,ENE,68,3.1,9.6,58,0.00,,---,0.00,VWS V13.01,2013-10-02 00:22:00,
2013-10-01 20:27:00,82.2,66.0,29.91,ENE,68,4.0,9.6,58,0.00,,---,0.00,VWS V13.01,2013-10-02 00:27:00,
2013-10-01 20:32:00,82.2,66.0,29.91,ENE,68,4.9,9.6,58,0.00,,---,0.00,VWS V13.01,2013-10-02 00:32:00,
2013-10-01 20:37:00,82.0,65.8,29.91,ENE,68,0.0,9.6,58,0.00,,---,0.00,VWS V13.01,2013-10-02 00:37:00,
2013-10-01 20:42:00,82.0,65.8,29.91,East,90,0.0,9.6,58,0.00,,---,0.00,VWS V13.01,2013-10-02 00:42:00,
2013-10-01 20:47:00,82.0,66.3,29.91,ENE,68,0.0,9.6,59,0.00,,---,0.00,VWS V13.01,2013-10-02 00:47:00,
2013-10-01 20:52:00,81.9,66.1,29.91,ENE,68,0.9,9.6,59,0.00,,---,0.00,VWS V13.01,2013-10-02 00:52:00,
2013-10-01 20:57:00,81.9,66.1,29.91,East,90,2.5,9.6,59,0.00,,---,0.00,VWS V13.01,2013-10-02 00:57:00,
2013-10-01 21:02:00,81.9,66.6,29.91,East,90,1.3,5.6,60,0.00,,---,0.00,VWS V13.01,2013-10-02 01:02:00,
2013-10-01 21:07:00,81.9,66.6,29.91,ENE,68,1.3,7.4,60,0.00,,---,0.00,VWS V13.01,2013-10-02 01:07:00,
2013-10-01 21:12:00,81.7,66.5,29.91,ENE,68,0.0,7.4,60,0.00,,---,0.00,VWS V13.01,2013-10-02 01:12:00,
2013-10-01 21:17:00,81.7,66.5,29.92,ENE,68,0.0,7.4,60,0.00,,---,0.00,VWS V13.01,2013-10-02 01:17:00,
2013-10-01 21:22:00,81.9,66.6,29.92,ESE,112,0.0,7.4,60,0.00,,---,0.00,VWS V13.01,2013-10-02 01:22:00,
2013-10-01 21:27:00,81.7,66.5,29.92,ENE,68,0.0,7.4,60,0.00,,---,0.00,VWS V13.01,2013-10-02 01:27:00,
2013-10-01 21:32:00,81.7,66.5,29.93,East,90,1.8,7.4,60,0.00,,---,0.00,VWS V13.01,2013-10-02 01:32:00,
2013-10-01 21:37:00,81.9,66.6,29.93,ENE,68,0.0,7.4,60,0.00,,---,0.00,VWS V13.01,2013-10-02 01:37:00,
2013-10-01 21:42:00,81.7,66.9,29.93,ENE,68,0.0,7.4,61,0.00,,---,0.00,VWS V13.01,2013-10-02 01:42:00,
2013-10-01 21:47:00,81.7,66.9,29.93,ESE,112,0.0,7.4,61,0.00,,---,0.00,VWS V13.01,2013-10-02 01:47:00,
2013-10-01 21:52:00,81.9,67.1,29.93,ENE,68,3.1,7.4,61,0.00,,---,0.00,VWS V13.01,2013-10-02 01:52:00,
2013-10-01 21:57:00,81.7,66.9,29.94,ENE,68,2.7,7.4,61,0.00,,---,0.00,VWS V13.01,2013-10-02 01:57:00,
2013-10-01 22:02:00,81.7,66.9,29.94,East,90,1.1,6.3,61,0.00,,---,0.00,VWS V13.01,2013-10-02 02:02:00,
2013-10-01 22:07:00,81.7,66.9,29.93,East,90,1.1,6.3,61,0.00,,---,0.00,VWS V13.01,2013-10-02 02:07:00,
2013-10-01 22:12:00,81.9,67.6,29.93,ENE,68,0.0,6.7,62,0.00,,---,0.00,VWS V13.01,2013-10-02 02:12:00,
2013-10-01 22:17:00,81.7,67.4,29.93,ESE,112,2.7,6.7,62,0.00,,---,0.00,VWS V13.01,2013-10-02 02:17:00,
2013-10-01 22:22:00,81.7,67.4,29.93,ENE,68,0.0,6.9,62,0.00,,---,0.00,VWS V13.01,2013-10-02 02:22:00,
2013-10-01 22:27:00,81.7,67.4,29.93,East,90,3.1,7.6,62,0.00,,---,0.00,VWS V13.01,2013-10-02 02:27:00,
2013-10-01 22:32:00,81.9,67.6,29.93,ENE,68,0.0,9.0,62,0.00,,---,0.00,VWS V13.01,2013-10-02 02:32:00,
2013-10-01 22:37:00,81.9,67.6,29.93,ENE,68,2.0,9.0,62,0.00,,---,0.00,VWS V13.01,2013-10-02 02:37:00,
2013-10-01 22:42:00,81.7,67.4,29.94,ENE,68,3.4,9.0,62,0.00,,---,0.00,VWS V13.01,2013-10-02 02:42:00,
2013-10-01 22:47:00,81.9,67.6,29.94,East,90,0.0,9.0,62,0.00,,---,0.00,VWS V13.01,2013-10-02 02:47:00,
2013-10-01 22:52:00,81.9,67.6,29.93,ENE,68,2.5,9.0,62,0.00,,---,0.00,VWS V13.01,2013-10-02 02:52:00,
2013-10-01 22:57:00,81.7,66.9,29.93,NE,45,9.8,9.8,61,0.00,,---,0.00,VWS V13.01,2013-10-02 02:57:00,
2013-10-01 23:02:00,81.7,67.4,29.93,ENE,68,0.0,5.8,62,0.00,,---,0.00,VWS V13.01,2013-10-02 03:02:00,
2013-10-01 23:07:00,81.7,67.4,29.93,ESE,112,0.0,5.8,62,0.00,,---,0.00,VWS V13.01,2013-10-02 03:07:00,
2013-10-01 23:12:00,81.5,67.2,29.93,East,90,6.9,6.9,62,0.00,,---,0.00,VWS V13.01,2013-10-02 03:12:00,
2013-10-01 23:17:00,81.7,66.9,29.93,ENE,68,2.5,6.9,61,0.00,,---,0.00,VWS V13.01,2013-10-02 03:17:00,
2013-10-01 23:22:00,81.5,66.8,29.93,ENE,68,0.9,6.9,61,0.00,,---,0.00,VWS V13.01,2013-10-02 03:22:00,
2013-10-01 23:27:00,81.5,67.2,29.92,East,90,3.1,6.9,62,0.00,,---,0.00,VWS V13.01,2013-10-02 03:27:00,
2013-10-01 23:32:00,81.3,67.1,29.92,ENE,68,0.0,6.9,62,0.00,,---,0.00,VWS V13.01,2013-10-02 03:32:00,
2013-10-01 23:37:00,81.3,67.1,29.92,ENE,68,1.1,6.9,62,0.00,,---,0.00,VWS V13.01,2013-10-02 03:37:00,
2013-10-01 23:42:00,81.3,67.1,29.92,ENE,68,0.0,6.9,62,0.00,,---,0.00,VWS V13.01,2013-10-02 03:42:00,
2013-10-01 23:47:00,81.3,67.1,29.92,ENE,68,2.0,6.9,62,0.00,,---,0.00,VWS V13.01,2013-10-02 03:47:00,
2013-10-01 23:52:00,81.3,67.1,29.92,ENE,68,1.8,6.9,62,0.00,,---,0.00,VWS V13.01,2013-10-02 03:52:00,
2013-10-01 23:57:00,81.0,66.7,29.92,ENE,68,0.0,6.9,62,0.00,,---,0.00,VWS V13.01,2013-10-02 03:57:00,